{"data":{"norad_id":62962,"intl_designator":"2025-029Q","name":"STARLINK-32858","alt_names":[],"object_type":"PAYLOAD","status":"ACTIVE","operator":null,"country":"US","launch_date":"2025-02-11","launch_site_code":"AFWTR","launch_vehicle":null,"mission":null,"orbit_class":"UNKNOWN","rcs_meters":null,"size_class":null,"mass_kg":null,"dimensions":null,"purposes":["comms"],"wikipedia_slug":null,"has_3d_model":false,"image_url":null,"decayed_at":null,"tle_current":{"epoch":"2026-05-24T23:39:23.465664Z","epoch_age_seconds":70237,"freshness":"FRESH","line1":"1 62962U 25029Q   26144.98568826  .00025914  00000+0  88397-3 0  9990","line2":"2 62962  53.1594 237.7290 0001529  91.3204 268.7972 15.30201238 72982","mean_motion":15.30201238,"eccentricity":0.0001529,"inclination_deg":53.1594,"raan_deg":237.729,"arg_perigee_deg":91.3204,"mean_anomaly_deg":268.7972,"bstar":0.00088397,"rev_number":7298,"period_min":94.105269571086,"perigee_km":474.16349601074,"apogee_km":476.2592499432,"semimajor_km":6853.348372977,"source":"CELESTRAK","updated_at":"2026-05-25T13:38:19.827247Z"}}}